Location: Regensburg
(49.0167°N, 12.1000°E)
Time: 10:19:31
(UTC+01:00)

Envisat - Visible Passes

Search period start: 21 January 2021 00:00
Search period end: 31 January 2021 00:00
Orbit: 764 x 766 km, 98.1° (Epoch: 20 January)

Date Brightness Start Highest point End Pass type
(mag) Time Alt. Az. Time Alt. Az. Time Alt. Az.
21 Jan 5.8 04:45:30 10° NE 04:48:46 17° E 04:52:01 10° SE visible
21 Jan 2.9 06:23:16 10° N 06:28:22 74° WNW 06:33:26 10° SSW visible
21 Jan 4.7 17:42:18 10° SSW 17:47:01 38° W 17:51:46 10° NNW visible
22 Jan 3.7 05:46:30 10° NNE 05:51:31 55° E 05:56:29 10° S visible
22 Jan 6.3 18:48:20 10° WSW 18:49:56 11° W 18:51:32 10° WNW visible
23 Jan 5.0 05:10:07 10° NE 05:14:28 27° E 05:18:46 10° SSE visible
23 Jan 3.3 06:48:50 10° N 06:53:41 46° WNW 06:58:30 10° SW visible
23 Jan 5.6 18:08:35 10° SW 18:12:37 24° W 18:16:42 10° NW visible
24 Jan 6.0 04:34:42 10° ENE 04:37:12 14° E 04:39:42 10° ESE visible
24 Jan 3.0 06:11:50 10° NNE 06:16:58 90° E 06:22:03 10° SSW visible
24 Jan 4.3 17:30:39 10° S 17:35:32 47° W 17:40:27 10° NNW visible
25 Jan 4.1 05:35:10 10° NNE 05:40:04 45° E 05:44:54 10° S visible
25 Jan 3.8 07:14:33 10° N 07:18:54 29° WNW 07:23:14 10° WSW visible
25 Jan 6.1 18:35:38 10° WSW 18:38:21 14° W 18:41:05 10° NW visible
26 Jan 5.4 04:58:59 10° NE 05:02:57 22° E 05:06:53 10° SE visible
26 Jan 3.1 06:37:20 10° N 06:42:19 56° WNW 06:47:17 10° SSW visible
26 Jan 5.3 17:56:43 10° SSW 18:01:07 29° W 18:05:31 10° NW visible
27 Jan 6.3 04:24:31 10° ENE 04:25:37 11° E 04:26:43 10° E visible
27 Jan 3.2 06:00:26 10° NNE 06:05:33 74° ESE 06:10:37 10° S visible
28 Jan 4.6 05:23:53 10° NNE 05:28:34 36° E 05:33:14 10° SSE visible
28 Jan 3.6 07:02:58 10° N 07:07:34 35° WNW 07:12:09 10° SW visible
28 Jan 6.0 18:23:23 10° SW 18:26:48 18° W 18:30:13 10° NW visible
29 Jan 5.7 04:47:56 10° NE 04:51:24 18° E 04:54:51 10° SE visible
29 Jan 2.9 06:25:52 10° N 06:30:56 69° WNW 06:35:59 10° SSW visible
29 Jan 4.9 17:44:58 10° SSW 17:49:37 35° W 17:54:18 10° NNW visible
30 Jan 3.6 05:49:03 10° NNE 05:54:06 60° E 05:59:06 10° S visible
30 Jan 6.5 18:51:43 10° W 18:52:35 10° W 18:53:27 10° WNW visible
